• In Lithuania
  • List of Countries
  • For 7 days
  • Water Temperature
  • Satellite Maps
  • Weather Map
  • Weather Widgets
  • user-avatar
    Login

    Hourly Weather San Fernando de Apure

    Today, 25 February, Sunday

    Time Temperature Precipitation Wind Pressure Humidity
    00:00 +30°C° 0 mm 2 mps 754 mmHg 45%
    01:00 +29°C° 0 mm 3 mps 754 mmHg 48%
    02:00 +28°C° 0 mm 3 mps 754 mmHg 54%
    03:00 +28°C° 0 mm 3 mps 754 mmHg 57%
    04:00 +27°C° 0 mm 3 mps 754 mmHg 60%
    05:00 +27°C° 0 mm 3 mps 754 mmHg 63%
    06:00 +27°C° 0 mm 3 mps 754 mmHg 63%
    07:00 +28°C° 0 mm 4 mps 755 mmHg 63%
    08:00 +28°C° 0 mm 4 mps 755 mmHg 63%
    09:00 +30°C° 0 mm 4 mps 755 mmHg 56%
    10:00 +33°C° 0 mm 4 mps 755 mmHg 50%
    11:00 +35°C° 0 mm 4 mps 755 mmHg 43%
    12:00 +36°C° 0 mm 4 mps 754 mmHg 39%
    13:00 +38°C° 0 mm 4 mps 754 mmHg 35%
    14:00 +40°C° 0 mm 4 mps 753 mmHg 30%
    15:00 +39°C° 0 mm 3 mps 752 mmHg 30%
    16:00 +39°C° 0 mm 3 mps 752 mmHg 30%
    17:00 +39°C° 0 mm 3 mps 751 mmHg 29%
    18:00 +37°C° 0 mm 3 mps 751 mmHg 32%
    19:00 +36°C° 0 mm 2 mps 752 mmHg 35%
    20:00 +34°C° 0 mm 2 mps 752 mmHg 37%
    21:00 +34°C° 0 mm 2 mps 753 mmHg 39%
    22:00 +32°C° 0 mm 2 mps 753 mmHg 41%
    23:00 +33°C° 0 mm 3 mps 754 mmHg 42%

    Tomorrow, 26 February, Monday

    Time Temperature Precipitation Wind Pressure Humidity
    00:00 +31°C° 0 mm 3 mps 754 mmHg 46%
    01:00 +30°C° 0 mm 3 mps 754 mmHg 51%
    02:00 +29°C° 0 mm 4 mps 754 mmHg 55%
    03:00 +29°C° 0 mm 4 mps 754 mmHg 58%
    04:00 +28°C° 0 mm 3 mps 754 mmHg 60%
    05:00 +28°C° 0 mm 3 mps 754 mmHg 63%
    06:00 +28°C° 0 mm 4 mps 754 mmHg 63%
    07:00 +28°C° 0 mm 4 mps 755 mmHg 62%
    08:00 +29°C° 0 mm 5 mps 756 mmHg 62%
    09:00 +30°C° 0 mm 5 mps 756 mmHg 56%
    10:00 +33°C° 0 mm 5 mps 756 mmHg 49%
    11:00 +35°C° 0 mm 4 mps 756 mmHg 43%
    12:00 +36°C° 0 mm 4 mps 755 mmHg 39%
    13:00 +38°C° 0 mm 4 mps 754 mmHg 35%
    14:00 +40°C° 0 mm 4 mps 753 mmHg 30%
    15:00 +40°C° 0 mm 4 mps 752 mmHg 30%
    16:00 +40°C° 0 mm 4 mps 751 mmHg 30%
    17:00 +40°C° 0 mm 4 mps 751 mmHg 29%
    18:00 +37°C° 0 mm 3 mps 751 mmHg 33%
    19:00 +36°C° 0 mm 3 mps 752 mmHg 36%
    20:00 +34°C° 0 mm 2 mps 752 mmHg 39%
    21:00 +34°C° 0 mm 3 mps 753 mmHg 41%
    22:00 +33°C° 0 mm 3 mps 753 mmHg 43%
    23:00 +33°C° 0 mm 3 mps 754 mmHg 45%

    Day after tomorrow, 27 February, Tuesday

    Time Temperature Precipitation Wind Pressure Humidity
    00:00 +32°C° 0 mm 4 mps 754 mmHg 49%
    01:00 +30°C° 0 mm 4 mps 754 mmHg 52%
    02:00 +29°C° 0 mm 4 mps 754 mmHg 56%
    03:00 +28°C° 0 mm 4 mps 753 mmHg 57%
    04:00 +28°C° 0 mm 4 mps 753 mmHg 58%
    05:00 +27°C° 0 mm 4 mps 753 mmHg 60%
    06:00 +28°C° 0 mm 4 mps 754 mmHg 59%
    07:00 +28°C° 0 mm 4 mps 755 mmHg 59%
    08:00 +28°C° 0 mm 5 mps 755 mmHg 59%
    09:00 +30°C° 0 mm 5 mps 755 mmHg 53%
    10:00 +33°C° 0 mm 4 mps 755 mmHg 48%
    11:00 +35°C° 0 mm 4 mps 755 mmHg 43%
    12:00 +36°C° 0 mm 4 mps 754 mmHg 39%
    13:00 +38°C° 0 mm 4 mps 753 mmHg 35%
    14:00 +40°C° 0 mm 4 mps 752 mmHg 31%
    15:00 +39°C° 0 mm 3 mps 751 mmHg 30%
    16:00 +39°C° 0 mm 3 mps 750 mmHg 29%
    17:00 +39°C° 0 mm 3 mps 749 mmHg 28%
    18:00 +37°C° 0 mm 3 mps 750 mmHg 31%
    19:00 +36°C° 0 mm 2 mps 750 mmHg 34%
    20:00 +34°C° 0 mm 2 mps 751 mmHg 36%
    21:00 +34°C° 0 mm 2 mps 751 mmHg 37%
    22:00 +33°C° 0 mm 3 mps 752 mmHg 38%
    23:00 +33°C° 0 mm 3 mps 752 mmHg 39%

    28 February, Wednesday

    Time Temperature Precipitation Wind Pressure Humidity
    00:00 +32°C° 0 mm 4 mps 752 mmHg 42%
    01:00 +30°C° 0 mm 4 mps 752 mmHg 45%
    02:00 +29°C° 0 mm 4 mps 752 mmHg 47%
    03:00 +28°C° 0 mm 4 mps 752 mmHg 52%
    04:00 +28°C° 0 mm 4 mps 752 mmHg 57%
    05:00 +27°C° 0 mm 4 mps 752 mmHg 62%
    06:00 +28°C° 0 mm 4 mps 753 mmHg 61%
    07:00 +28°C° 0 mm 4 mps 754 mmHg 60%
    08:00 +28°C° 0 mm 5 mps 754 mmHg 59%
    09:00 +30°C° 0 mm 5 mps 754 mmHg 53%
    10:00 +33°C° 0 mm 5 mps 755 mmHg 47%
    11:00 +35°C° 0 mm 5 mps 755 mmHg 42%
    12:00 +36°C° 0 mm 5 mps 753 mmHg 38%
    13:00 +38°C° 0 mm 4 mps 752 mmHg 34%
    14:00 +40°C° 0 mm 4 mps 751 mmHg 30%
    15:00 +40°C° 0 mm 4 mps 750 mmHg 29%
    16:00 +40°C° 0 mm 4 mps 750 mmHg 28%
    17:00 +40°C° 0 mm 4 mps 749 mmHg 27%
    18:00 +37°C° 0 mm 3 mps 750 mmHg 30%
    19:00 +36°C° 0 mm 2 mps 751 mmHg 32%
    20:00 +34°C° 0 mm 2 mps 751 mmHg 35%
    21:00 +34°C° 0 mm 2 mps 752 mmHg 36%
    22:00 +33°C° 0 mm 3 mps 752 mmHg 38%
    23:00 +33°C° 0 mm 3 mps 753 mmHg 40%

    1 March, Thursday

    Time Temperature Precipitation Wind Pressure Humidity
    00:00 +32°C° 0 mm 4 mps 753 mmHg 44%
    01:00 +30°C° 0 mm 4 mps 753 mmHg 47%
    02:00 +29°C° 0 mm 4 mps 752 mmHg 51%
    03:00 +28°C° 0 mm 4 mps 752 mmHg 55%
    04:00 +28°C° 0 mm 4 mps 753 mmHg 58%
    05:00 +27°C° 0 mm 4 mps 753 mmHg 61%
    06:00 +28°C° 0 mm 4 mps 753 mmHg 61%
    07:00 +28°C° 0 mm 5 mps 754 mmHg 61%
    08:00 +28°C° 0 mm 5 mps 755 mmHg 61%
    09:00 +30°C° 0 mm 5 mps 755 mmHg 55%
    10:00 +33°C° 0 mm 5 mps 755 mmHg 49%
    11:00 +35°C° 0 mm 5 mps 755 mmHg 44%
    12:00 +36°C° 0 mm 5 mps 754 mmHg 40%
    13:00 +37°C° 0 mm 5 mps 753 mmHg 36%
    14:00 +39°C° 0 mm 5 mps 752 mmHg 33%
    15:00 +38°C° 0 mm 4 mps 751 mmHg 32%
    16:00 +38°C° 0 mm 4 mps 751 mmHg 31%
    17:00 +38°C° 0 mm 4 mps 750 mmHg 30%
    18:00 +37°C° 0 mm 3 mps 751 mmHg 32%
    19:00 +35°C° 0 mm 2 mps 751 mmHg 35%
    20:00 +34°C° 0 mm 2 mps 752 mmHg 38%
    21:00 +32°C° 0 mm 2 mps 752 mmHg 40%
    22:00 +33°C° 0 mm 3 mps 753 mmHg 41%
    23:00 +31°C° 0 mm 3 mps 753 mmHg 43%

    2 March, Friday

    Time Temperature Precipitation Wind Pressure Humidity
    00:00 +30°C° 0 mm 3 mps 753 mmHg 47%
    01:00 +29°C° 0 mm 3 mps 753 mmHg 51%
    02:00 +29°C° 0 mm 3 mps 753 mmHg 56%
    03:00 +28°C° 0 mm 4 mps 753 mmHg 58%
    04:00 +28°C° 0 mm 4 mps 753 mmHg 61%
    05:00 +27°C° 0 mm 4 mps 753 mmHg 63%
    06:00 +28°C° 0 mm 4 mps 754 mmHg 62%
    07:00 +28°C° 0 mm 5 mps 754 mmHg 62%
    08:00 +29°C° 0 mm 5 mps 755 mmHg 62%
    09:00 +30°C° 0 mm 5 mps 755 mmHg 56%
    10:00 +33°C° 0 mm 5 mps 755 mmHg 51%
    11:00 +34°C° 0 mm 5 mps 755 mmHg 45%
    12:00 +36°C° 0 mm 5 mps 754 mmHg 42%
    13:00 +37°C° 0 mm 5 mps 753 mmHg 38%
    14:00 +39°C° 0 mm 5 mps 752 mmHg 34%
    15:00 +39°C° 0 mm 5 mps 751 mmHg 33%
    16:00 +38°C° 0 mm 4 mps 750 mmHg 31%
    17:00 +38°C° 0 mm 4 mps 750 mmHg 30%
    18:00 +37°C° 0 mm 3 mps 750 mmHg 33%
    19:00 +35°C° 0 mm 2 mps 751 mmHg 36%
    20:00 +32°C° 0 mm 2 mps 751 mmHg 39%
    21:00 +32°C° 0 mm 2 mps 751 mmHg 40%
    22:00 +31°C° 0 mm 2 mps 752 mmHg 41%
    23:00 +31°C° 0 mm 2 mps 752 mmHg 42%
    Show more